[[{"header":{"parameterUnit":"m.s-1","parameterCategory":1,"la1":30.2991,"la2":30.254,"lo1":-89.0895,"lo2":-89.0444,"dy":0.0017,"dx":0.0017,"nx":28,"ny":28,"refTime":"2026-02-07T09:00:00:Z","depth":0,"parameterNumber":2,"parameterNumberName":"U-component_of_WINDS"},"data":[0,0,0,0,0,0,0,0,0,0,0,0,0,0,0,0,0,0,0,0,0,0,0,0,0,0,0,0,0,0,0,0,0,0,0,0,0,0,0,0,0,0,0,0,0,0,0,0,0,0,0,0,0,0,0,0,0,0,-1.3736,-1.3736,0,-1.3738,-1.3738,-1.3738,-1.3669,-1.3668,-1.3666,-1.3664,-1.3666,-1.3668,-1.367,0,0,0,0,0,0,0,0,0,0,0,0,0,-1.3675,-1.3676,-1.3736,-1.3736,-1.3736,-1.3738,-1.3738,-1.3738,-1.367,-1.3668,-1.3665,-1.3663,-1.3666,-1.3668,-1.367,0,0,0,0,0,0,0,0,0,0,0,0,0,-1.3692,-1.3677,-1.3736,-1.3703,-1.37,-1.3738,-1.3738,-1.3738,-1.367,-1.3668,-1.3665,-1.3662,-1.3665,-1.3667,-1.367,-1.374,0,0,-1.3678,-1.3679,0,0,0,0,0,0,0,0,-1.3691,-1.3694,-1.3707,-1.3705,-1.3702,-1.3701,-1.3717,-1.3739,-1.3671,-1.3681,-1.3664,-1.3661,-1.368,-1.3681,-1.3687,-1.3741,-1.3741,-1.3678,-1.368,-1.3681,-1.3682,0,0,0,0,0,0,0,-1.369,-1.3693,-1.3737,-1.3708,-1.3704,-1.3687,-1.3687,-1.3721,-1.3696,-1.368,-1.3675,-1.3676,-1.3678,-1.3685,-1.3687,-1.3741,-1.3678,-1.368,-1.3682,-1.3683,-1.3851,-1.3853,0,0,0,0,0,0,-1.3693,-1.3693,-1.3737,-1.3737,-1.3689,-1.3691,-1.369,-1.3704,-1.3695,-1.3691,-1.3679,-1.3673,-1.3682,-1.3684,-1.3687,-1.3767,-1.3681,-1.3683,-1.3685,-1.3848,-1.3851,-1.3854,0,0,0,0,0,0,-1.3692,-1.3698,-1.3737,-1.3714,-1.3717,-1.3695,-1.3711,-1.3705,-1.3712,-1.3694,-1.3689,-1.3691,-1.368,-1.3683,-1.3727,-1.3766,-1.3684,-1.3687,-1.3844,-1.3849,-1.3853,-1.393,0,0,0,0,0,0,-1.3691,-1.3698,-1.3724,-1.3715,-1.3719,-1.3777,-1.3713,-1.3707,-1.3717,-1.371,-1.3704,-1.37,-1.3678,-1.3724,-1.373,-1.3768,-1.3689,-1.3841,-1.3846,-1.3852,-1.3924,-1.3936,-1.3947,0,0,0,0,0,-1.3689,-1.3746,-1.3726,-1.3731,-1.3751,-1.378,-1.3782,-1.3755,-1.372,-1.3746,-1.3735,-1.3701,-1.3762,-1.3729,-1.3735,-1.3775,-1.3838,-1.3845,-1.3851,-1.3918,-1.3934,-1.3947,0,0,0,0,0,0,-1.3761,-1.3744,-1.3721,-1.3778,-1.3781,-1.3768,-1.38,-1.3772,-1.3785,-1.3778,-1.3744,-1.3743,-1.3792,-1.3789,-1.3752,-1.3842,-1.3794,-1.3802,-1.3843,-1.3857,-1.3869,-1.3868,-1.3691,0,0,0,0,0,-1.3783,-1.3808,-1.3792,-1.3843,-1.3846,-1.3823,-1.3835,-1.3813,-1.3815,-1.3816,-1.3807,-1.3811,-1.383,-1.3844,-1.3861,-1.3924,-1.3921,-1.3954,-1.3966,-1.3976,-1.3982,-1.4014,-1.4028,-1.3876,-1.3876,-1.3876,0,0,-1.383,-1.3824,-1.3841,-1.3857,-1.3857,-1.3883,-1.3825,-1.3855,-1.3873,-1.382,-1.3861,-1.3856,-1.3857,-1.391,-1.3933,-1.3908,-1.4024,-1.3984,-1.3992,-1.3993,-1.4022,-1.4037,-1.4049,-1.388,-1.3879,-1.3879,0,0,-1.3927,-1.3926,-1.3968,-1.3969,-1.3969,-1.3954,-1.3964,-1.3956,-1.395,-1.399,-1.3951,-1.3973,-1.4008,-1.401,-1.4016,-1.4115,-1.4083,-1.4122,-1.4182,-1.4213,-1.4225,-1.4235,-1.4269,-1.4282,-1.4129,-1.4129,-1.4129,0,-1.3985,-1.4022,-1.3993,-1.4025,-1.4033,-1.3987,-1.4028,-1.4031,-1.4037,-1.4043,-1.4016,-1.4058,-1.4056,-1.4108,-1.4133,-1.4139,-1.4149,-1.4121,-1.4226,-1.4236,-1.4245,-1.4277,-1.429,-1.4134,-1.4133,-1.4133,-1.4132,0,-1.4092,-1.4119,-1.4153,-1.4159,-1.4171,-1.4208,-1.4184,-1.42,-1.4178,-1.4166,-1.4207,-1.4203,-1.4218,-1.4229,-1.4209,-1.4279,-1.4263,-1.4232,-1.4181,-1.4265,-1.4294,-1.4306,-1.414,-1.4138,-1.4137,-1.4136,0,0,-1.4234,-1.4224,-1.4237,-1.4238,-1.4236,-1.4256,-1.4291,-1.4305,-1.4319,-1.4325,-1.4353,-1.4384,-1.4354,-1.436,-1.434,-1.4367,-1.4444,-1.4332,-1.4331,-1.4351,-1.452,-1.4542,-1.4557,-1.4424,-1.4426,-1.4428,-1.4519,0,-1.4327,-1.4385,-1.436,-1.4421,-1.4444,-1.4401,-1.4431,-1.4433,-1.4423,-1.4441,-1.443,-1.4452,-1.4412,-1.4415,-1.4441,-1.4429,-1.4477,-1.4423,-1.4449,-1.445,-1.4447,-1.4572,-1.4596,-1.4682,-1.453,-1.4532,-1.4534,0,-1.4443,-1.4453,-1.4516,-1.4509,-1.4517,-1.4545,-1.4556,-1.4575,-1.4576,-1.4566,-1.4574,-1.4547,-1.458,-1.4532,-1.4578,-1.4541,-1.4551,-1.4547,-1.4549,-1.4549,-1.4495,-1.4573,-1.4709,-1.4721,-1.4552,-1.455,-1.4549,0,-1.4538,-1.4568,-1.4609,-1.4612,-1.4605,-1.4625,-1.4623,-1.4621,-1.4631,-1.4641,-1.4647,-1.4662,-1.4669,-1.468,-1.4658,-1.4625,-1.4706,-1.4656,-1.4698,-1.4699,-1.4715,-1.4714,-1.4852,-1.4725,-1.4725,-1.4725,-1.4724,0,-1.4643,-1.4683,-1.4651,-1.4676,-1.4719,-1.469,-1.4734,-1.4727,-1.4726,-1.4749,-1.4714,-1.4736,-1.4706,-1.4725,-1.4708,-1.4747,-1.4752,-1.4744,-1.4739,-1.4746,-1.4747,-1.475,-1.4743,-1.4728,-1.4727,-1.4727,-1.4726,0,-1.4755,-1.4736,-1.4777,-1.4767,-1.4765,-1.4797,-1.4788,-1.4811,-1.4799,-1.4828,-1.4833,-1.4814,-1.4835,-1.4814,-1.4834,-1.4823,-1.4875,-1.4862,-1.4874,-1.4869,-1.4911,-1.4907,-1.5055,-1.5072,-1.4936,-1.4938,-1.4939,0,-1.4822,-1.4852,-1.4844,-1.4857,-1.4857,-1.4878,-1.4888,-1.4861,-1.4873,-1.4876,-1.4898,-1.4916,-1.4929,-1.4965,-1.4952,-1.4967,-1.4953,-1.5004,-1.4955,-1.4961,-1.4951,-1.4949,-1.4951,-1.5013,-1.5015,-1.5016,-1.5017,0,-1.4943,-1.4932,-1.4948,-1.496,-1.4973,-1.4981,-1.4987,-1.5,-1.4972,-1.4987,-1.5008,-1.5018,-1.5038,-1.5056,-1.5067,-1.5065,-1.5036,-1.5033,-1.5043,-1.505,-1.5054,-1.505,-1.4899,-1.5029,-1.5028,-1.5027,-1.5026,-1.5026,-1.5033,-1.5057,-1.5055,-1.5074,-1.5075,-1.5081,-1.5102,-1.5092,-1.5109,-1.5122,-1.5106,-1.5131,-1.5131,-1.5143,-1.5145,-1.5164,-1.5142,-1.5158,-1.5161,-1.5164,-1.517,-1.5054,-1.5166,-1.5166,-1.5166,-1.5165,-1.5165,0,-1.5151,-1.5147,-1.5165,-1.5173,-1.5188,-1.516,-1.5165,-1.5179,-1.5202,-1.5204,-1.5217,-1.5241,-1.5258,-1.5248,-1.5262,-1.528,-1.5267,-1.5284,-1.5281,-1.5281,-1.5189,-1.5178,-1.5294,-1.5294,-1.5294,-1.5294,-1.5294,-1.5294,-1.5213,-1.5251,-1.524,-1.5278,-1.5275,-1.5299,-1.5304,-1.5309,-1.531,-1.5338,-1.5352,-1.5345,-1.5342,-1.5356,-1.5371,-1.5367,-1.5374,-1.5395,-1.5387,-1.5301,-1.5288,-1.5276,-1.5265,-1.5397,-1.5398,-1.5477,-1.5478,-1.5478]},{"header":{"parameterUnit":"m.s-1","parameterCategory":1,"la1":30.2991,"la2":30.254,"lo1":-89.0895,"lo2":-89.0444,"dy":0.0017,"dx":0.0017,"nx":28,"ny":28,"refTime":"2026-02-07T09:00:00:Z","depth":0,"parameterNumber":3,"parameterNumberName":"V-component_of_WINDS"},"data":[0,0,0,0,0,0,0,0,0,0,0,0,0,0,0,0,0,0,0,0,0,0,0,0,0,0,0,0,0,0,0,0,0,0,0,0,0,0,0,0,0,0,0,0,0,0,0,0,0,0,0,0,0,0,0,0,0,0,1.4312,1.4312,0,1.4321,1.4321,1.4322,1.4419,1.4421,1.4424,1.4426,1.4433,1.443,1.4428,0,0,0,0,0,0,0,0,0,0,0,0,0,1.4377,1.4375,1.4312,1.4312,1.4312,1.4321,1.4322,1.4322,1.4419,1.4422,1.4425,1.4427,1.4433,1.4431,1.4428,0,0,0,0,0,0,0,0,0,0,0,0,0,1.4363,1.4374,1.4312,1.4362,1.4366,1.4321,1.4322,1.4322,1.4418,1.4422,1.4425,1.4429,1.4434,1.4431,1.4428,1.4335,0,0,1.4418,1.4417,0,0,0,0,0,0,0,0,1.4364,1.4361,1.4354,1.4358,1.4363,1.4373,1.4347,1.4326,1.4417,1.4398,1.4426,1.4431,1.4409,1.4409,1.4402,1.4335,1.4335,1.4418,1.4416,1.4415,1.4414,0,0,0,0,0,0,0,1.4365,1.4361,1.4316,1.4354,1.436,1.4383,1.4385,1.4343,1.4383,1.44,1.4407,1.4407,1.4413,1.4405,1.4403,1.4335,1.4418,1.4415,1.4413,1.4412,1.4196,1.4192,0,0,0,0,0,0,1.4359,1.4361,1.4315,1.4316,1.4373,1.4379,1.4382,1.4366,1.4384,1.439,1.4404,1.4412,1.4409,1.4407,1.4404,1.4298,1.4415,1.4412,1.441,1.42,1.4195,1.4191,0,0,0,0,0,0,1.436,1.4354,1.4315,1.434,1.4337,1.4374,1.4356,1.4364,1.4357,1.4387,1.4394,1.4389,1.4411,1.4408,1.4352,1.4299,1.441,1.4407,1.4204,1.4198,1.4193,1.4084,0,0,0,0,0,0,1.4361,1.4354,1.4319,1.4339,1.4336,1.4263,1.4353,1.4362,1.4351,1.4362,1.4375,1.438,1.4414,1.4356,1.4349,1.4297,1.4405,1.4209,1.4201,1.4195,1.4092,1.4075,1.406,0,0,0,0,0,1.4363,1.4286,1.4316,1.431,1.4293,1.426,1.4258,1.4299,1.4347,1.4312,1.4332,1.438,1.4306,1.435,1.4342,1.4288,1.4212,1.4204,1.4195,1.41,1.4079,1.4061,0,0,0,0,0,0,1.4256,1.429,1.4323,1.4251,1.4252,1.4276,1.4233,1.4275,1.4262,1.4271,1.4323,1.4325,1.4261,1.427,1.4317,1.4201,1.4268,1.4257,1.4198,1.4178,1.4162,1.4162,1.4402,0,0,0,0,0,1.4225,1.4196,1.4226,1.4159,1.4158,1.4195,1.4183,1.4215,1.4218,1.4218,1.4234,1.4234,1.4212,1.4195,1.4176,1.4095,1.41,1.4054,1.4038,1.4025,1.4015,1.3975,1.3956,1.4162,1.4162,1.4163,0,0,1.4158,1.4173,1.4151,1.4138,1.4143,1.4112,1.4195,1.4158,1.4136,1.4212,1.4161,1.4173,1.4177,1.4108,1.4079,1.4113,1.3959,1.4014,1.4003,1.4,1.3964,1.3944,1.3927,1.4157,1.4158,1.4159,0,0,1.4021,1.4029,1.3975,1.3979,1.3986,1.4012,1.3999,1.4018,1.403,1.398,1.4037,1.4011,1.3971,1.3972,1.3967,1.3835,1.3879,1.3827,1.3743,1.3703,1.3687,1.3673,1.3627,1.361,1.3817,1.3817,1.3817,0,1.3937,1.3893,1.3941,1.3902,1.3895,1.3966,1.3912,1.3913,1.3913,1.3906,1.3945,1.3898,1.3905,1.3839,1.3807,1.3801,1.3788,1.3825,1.3686,1.3672,1.3659,1.3616,1.3599,1.381,1.3811,1.3812,1.3812,0,1.379,1.376,1.3715,1.3716,1.3704,1.3657,1.3699,1.3681,1.3715,1.3737,1.3686,1.3698,1.3684,1.3671,1.3702,1.361,1.3631,1.3677,1.3745,1.3633,1.3593,1.3577,1.3801,1.3804,1.3806,1.3807,0,0,1.3583,1.3615,1.3597,1.36,1.3615,1.3592,1.3549,1.3537,1.3521,1.3519,1.3485,1.3451,1.3495,1.349,1.3522,1.3487,1.3384,1.3538,1.3539,1.351,1.3285,1.3251,1.3231,1.3414,1.3411,1.3409,1.3285,0,1.3453,1.3383,1.3427,1.3349,1.3323,1.3391,1.3354,1.3359,1.3379,1.3359,1.3381,1.3357,1.3416,1.3413,1.3382,1.3403,1.334,1.3413,1.3383,1.3381,1.338,1.321,1.3173,1.3055,1.327,1.3267,1.3265,0,1.329,1.3284,1.3205,1.3229,1.3219,1.3185,1.3179,1.3159,1.3167,1.3184,1.318,1.3222,1.3183,1.3251,1.3198,1.3246,1.3237,1.3246,1.3243,1.3241,1.3316,1.3204,1.3019,1.3001,1.3241,1.3243,1.3245,0,1.3149,1.3121,1.3071,1.3071,1.3096,1.3071,1.308,1.3092,1.3083,1.3078,1.3073,1.3062,1.3056,1.3047,1.3086,1.3131,1.3028,1.3098,1.3041,1.304,1.3016,1.3017,1.2826,1.3009,1.3009,1.3009,1.301,0,1.2998,1.2947,1.3008,1.2977,1.2923,1.2975,1.2919,1.2936,1.2946,1.292,1.2978,1.2952,1.3005,1.2984,1.3015,1.2967,1.2963,1.2977,1.2985,1.2972,1.297,1.2966,1.2975,1.3005,1.3006,1.3007,1.3008,0,1.2831,1.2869,1.282,1.2849,1.2856,1.2814,1.284,1.2812,1.2838,1.2804,1.2799,1.2838,1.2818,1.2856,1.284,1.286,1.2794,1.2815,1.2791,1.2798,1.2739,1.2744,1.254,1.2516,1.2713,1.2711,1.2709,0,1.2732,1.2695,1.2722,1.271,1.2716,1.2695,1.2687,1.2737,1.2726,1.2735,1.2706,1.2691,1.2682,1.2645,1.2672,1.2661,1.2682,1.2612,1.2681,1.2669,1.2683,1.2684,1.2682,1.2597,1.2594,1.2592,1.2591,0,1.2553,1.2575,1.2562,1.2557,1.2546,1.2544,1.2545,1.2531,1.2585,1.257,1.2551,1.2543,1.2528,1.2513,1.2508,1.2518,1.2563,1.2569,1.2556,1.2541,1.253,1.2537,1.2753,1.2573,1.2575,1.2576,1.2577,1.2578,1.2418,1.2389,1.2405,1.2389,1.2397,1.2397,1.2374,1.2399,1.2384,1.2377,1.2407,1.2381,1.2393,1.2392,1.2397,1.2378,1.241,1.2389,1.2384,1.2379,1.237,1.2533,1.2377,1.2378,1.2378,1.2379,1.2379,0,1.2243,1.2258,1.2243,1.2245,1.2233,1.2279,1.2284,1.2271,1.2248,1.2256,1.2247,1.2226,1.2212,1.2239,1.2229,1.2209,1.2229,1.2205,1.2207,1.2209,1.2341,1.2355,1.2188,1.2188,1.2188,1.2188,1.2188,1.2188,1.2151,1.2106,1.213,1.209,1.2105,1.2082,1.2081,1.2083,1.209,1.2064,1.2054,1.2072,1.2088,1.2081,1.2071,1.2079,1.2073,1.2041,1.2057,1.218,1.2199,1.2217,1.2229,1.2039,1.2039,1.1926,1.1925,1.1924]}]]